Wind_Speed
32 31 31 31 31 31 31 30 30 30 29 29 29 28 28 28 28 27 27 28 28 27 27 28 28 27 27 27 26 26 26 26 26 25 25 25 25 25 25 26 25 25 25
34 34 34 33 33 33 33 32 32 32 31 31 31 31 31 30 30 30 30 30 30 29 29 29 30 30 30 30 29 28 28 28 28 27 27 27 27 27 27 28 28 27 27
36 36 36 36 35 35 35 35 34 34 33 33 33 32 33 33 32 33 32 32 32 32 32 31 31 31 32 32 31 31 30 30 30 30 30 29 29 29 29 29 29 29 29
39 39 38 38 37 37 37 37 37 36 36 35 35 35 35 35 34 34 34 34 34 34 34 33 33 33 33 33 33 33 33 33 32 32 31 31 31 31 31 31 31 31 31
40 40 40 40 39 39 38 38 38 38 38 38 37 37 37 37 36 36 36 36 36 36 36 36 35 35 35 35 35 35 36 35 35 34 34 33 33 32 32 33 33 33 33
40 40 40 40 40 40 40 40 40 40 40 39 39 39 39 39 38 38 37 37 37 37 37 37 37 37 37 37 37 37 37 37 37 37 36 36 35 34 34 34 34 34 34
40 40 40 40 40 40 41 41 41 41 41 41 41 41 40 40 40 40 40 39 39 39 39 38 39 39 39 39 39 39 39 39 39 39 39 38 37 37 36 36 36 36 36
40 39 40 40 40 40 41 41 41 41 42 42 42 42 42 42 42 42 41 41 41 41 41 40 40 41 41 41 41 41 41 41 41 40 40 40 40 39 39 38 39 39 39
41 41 41 40 40 41 41 40 41 42 42 42 43 43 43 44 43 43 43 43 43 42 42 42 42 42 42 43 43 42 43 43 42 42 42 42 42 41 41 40 40 40 40
43 41 42 41 41 41 41 41 41 42 43 43 43 44 44 44 44 44 44 44 43 43 43 43 43 43 43 43 43 43 43 43 43 43 43 43 43 43 43 42 42 42 42
44 44 43 43 42 42 42 42 42 42 43 43 44 44 44 44 45 44 44 44 44 44 44 44 44 43 43 44 44 44 44 44 44 44 45 45 45 45 45 44 44 44 44
45 45 45 44 44 43 43 43 44 44 44 44 45 45 45 45 45 45 45 45 45 45 45 46 45 45 45 44 45 45 45 45 45 45 46 46 46 46 47 46 46 46 46
47 46 46 46 45 45 45 45 45 45 45 45 45 45 46 46 47 47 47 47 46 46 47 47 47 47 47 46 46 46 46 46 46 47 47 47 47 47 48 47 47 47 47
47 47 47 46 46 45 45 45 46 46 45 45 45 45 46 46 46 47 47 47 47 48 48 48 48 48 48 48 48 47 47 47 47 48 48 49 49 49 49 49 49 48 48
48 48 47 47 46 46 46 46 46 46 46 46 45 45 45 46 46 46 47 47 48 48 48 48 49 49 49 49 49 48 47 48 48 49 50 51 51 51 51 51 51 50 50
50 49 48 48 47 47 47 47 46 46 46 46 46 46 46 46 46 47 47 48 48 48 48 48 48 49 50 50 50 50 49 49 49 50 51 52 53 53 53 52 52 51 51
50 50 49 48 48 47 47 47 47 47 47 47 47 47 46 47 47 47 48 48 48 49 49 49 49 49 50 50 50 51 51 50 50 51 52 53 53 54 54 54 53 53 53
51 50 49 49 48 48 48 48 48 48 48 48 48 48 48 49 48 48 48 48 49 49 50 50 50 50 50 50 50 52 53 52 52 52 53 54 55 56 55 56 56 55 54
50 50 49 49 48 48 48 48 48 48 48 48 49 49 49 50 49 49 48 49 49 49 50 50 50 50 50 50 51 52 53 54 53 54 54 54 55 55 56 56 56 56 55
49 49 49 49 48 47 47 47 48 48 48 48 48 48 49 49 50 49 49 49 49 50 50 51 51 51 51 51 51 52 53 54 54 54 54 54 54 55 56 56 56 56 57
48 49 49 49 49 48 48 47 47 48 48 48 47 47 47 48 48 48 48 49 49 49 50 51 51 51 51 51 51 52 52 53 54 54 54 54 55 56 56 56 57 57 57
47 47 48 48 48 48 47 47 46 46 47 47 47 47 47 47 47 47 48 48 48 48 50 51 51 51 51 51 51 52 52 53 53 54 54 54 54 55 56 56 57 57 58
47 47 48 48 48 48 47 47 46 46 47 47 47 47 46 46 46 47 47 48 49 49 49 50 51 51 51 52 52 52 52 52 53 54 55 54 55 55 55 56 57 57 57
46 46 46 47 47 47 47 47 46 46 47 47 47 46 46 46 47 47 47 48 49 48 49 50 51 51 51 52 53 52 52 52 53 54 55 54 54 54 55 55 56 57 57
45 44 44 45 45 45 46 46 46 46 47 47 46 46 47 46 47 48 48 48 49 49 49 50 50 51 51 52 53 53 53 53 53 53 54 55 54 54 54 55 55 56 56
43 44 44 44 45 45 46 46 46 47 47 47 48 48 47 47 47 48 48 49 49 49 50 50 51 51 51 52 53 53 53 53 53 53 54 54 54 54 53 53 54 54 55
Wind_Direction
256 257 256 256 256 255 255 254 254 254 255 255 255 254 255 255 255 255 256 256 256 256 255 255 255 256 257 257 257 257 258 259 259 260 259 259 259 259 259 259 260 261 263
256 256 256 256 256 255 255 255 255 255 256 255 256 256 255 255 255 256 256 256 256 256 256 257 257 257 257 258 258 258 258 259 260 261 262 261 260 260 261 262 262 262 264
256 256 256 256 256 256 255 255 256 256 256 257 257 256 256 256 256 257 257 257 257 257 257 258 258 258 258 258 259 259 259 259 261 262 262 262 261 262 263 263 264 264 264
257 257 256 256 256 256 256 256 256 256 257 257 257 257 257 256 256 257 258 258 257 257 257 258 260 260 260 259 259 259 259 259 260 261 261 262 262 262 263 265 265 265 266
257 257 256 256 256 256 256 256 256 257 257 257 257 257 257 257 256 256 256 257 258 259 259 259 260 261 261 260 259 259 260 261 260 260 261 261 262 263 263 265 266 267 268
257 257 257 256 257 257 257 257 257 257 258 257 258 258 258 257 256 256 256 258 259 260 260 260 260 261 262 261 260 260 261 261 261 261 261 261 262 263 264 265 267 269 269
257 257 257 257 257 258 258 258 258 258 258 258 258 258 257 256 256 256 257 258 259 260 261 261 261 261 262 262 262 261 261 261 261 262 262 262 262 263 264 265 267 269 270
256 257 258 258 258 258 258 258 258 258 258 258 259 259 257 256 256 256 257 258 260 261 261 262 262 262 262 263 262 262 261 261 261 262 262 262 262 262 263 265 267 269 270
255 256 257 257 258 259 259 258 259 259 259 259 259 259 258 257 257 257 257 258 259 260 261 262 262 262 262 263 263 263 262 261 261 261 262 262 262 262 263 265 267 268 269
255 257 257 258 259 260 259 259 260 260 260 260 260 259 258 258 257 256 257 257 258 259 260 261 261 262 262 262 262 262 262 262 262 262 262 263 263 263 264 265 266 268 269
256 257 258 258 259 259 260 261 261 261 261 261 260 259 257 257 256 256 257 257 258 259 260 260 261 262 262 262 262 262 262 262 262 262 262 263 263 263 264 265 266 267 269
256 257 258 258 259 260 261 261 261 261 261 261 260 259 257 257 256 256 257 258 258 258 259 260 261 262 261 262 262 262 263 263 263 262 262 263 263 264 264 264 265 266 267
256 257 258 259 260 261 262 262 261 261 262 261 261 260 258 258 257 257 257 258 258 258 259 260 261 262 262 262 262 263 263 263 263 263 263 262 263 263 263 264 264 265 267
256 256 258 259 260 261 262 262 262 262 262 262 261 261 259 258 258 258 258 259 259 259 260 261 262 262 262 262 262 263 263 264 263 263 264 263 263 263 263 264 264 265 266
255 256 258 259 260 261 262 262 261 261 262 262 261 260 259 258 258 258 258 259 259 259 260 261 262 262 263 263 262 263 264 264 264 264 264 264 263 263 263 264 265 265 265
255 257 258 259 261 262 262 261 261 261 261 261 261 260 260 259 259 258 259 259 260 260 261 261 262 263 263 263 263 263 264 264 264 265 265 265 264 263 263 264 264 264 265
255 257 258 260 261 261 261 261 262 261 261 261 261 261 260 260 260 259 259 260 261 261 262 262 262 263 263 263 264 264 265 265 265 265 266 265 265 264 264 264 264 264 265
255 256 258 259 259 260 261 261 262 261 261 261 261 261 260 260 260 260 260 260 261 262 263 263 263 263 265 265 264 265 265 265 265 266 266 266 265 265 264 265 265 265 266
255 256 257 258 259 260 261 262 261 261 261 261 261 261 261 261 260 260 260 261 262 263 263 263 263 263 265 266 266 266 265 265 266 267 267 267 266 265 264 265 266 266 266
255 256 257 258 259 259 261 262 261 262 262 261 261 261 262 262 261 260 261 262 262 263 263 263 264 264 265 267 267 267 267 266 267 268 268 268 267 266 265 266 266 267 268
256 256 257 257 258 258 259 261 261 262 262 262 262 262 262 261 261 261 261 262 263 264 264 264 264 265 265 267 267 268 268 268 267 268 269 269 268 267 266 267 267 268 268
256 256 256 256 257 257 259 259 260 261 261 261 261 261 262 261 262 262 262 262 263 264 264 264 265 265 265 267 268 269 269 269 268 268 268 269 269 268 268 268 268 268 269
258 258 258 257 257 257 257 258 260 260 260 261 261 261 261 262 262 263 262 263 263 264 265 265 266 265 266 267 269 270 271 271 270 269 268 269 269 268 269 269 269 269 269
258 258 258 257 256 256 256 258 259 260 260 261 261 261 261 262 262 263 262 263 263 264 266 266 266 267 267 268 270 271 271 271 271 270 270 270 269 270 269 269 269 270 270
258 258 258 257 256 256 257 258 259 260 260 261 260 261 262 264 264 264 263 262 263 265 266 267 267 268 269 270 270 271 271 272 271 271 271 270 270 270 271 271 271 271 271
259 258 258 258 257 258 258 258 259 260 260 260 261 261 262 264 266 264 263 263 263 265 266 267 268 269 269 270 271 271 272 272 272 271 271 271 270 270 270 271 271 271 271
Height
5775 5776 5777 5778 5779 5780 5781 5782 5783 5784 5785 5787 5788 5789 5790 5791 5792 5793 5794 5795 5796 5796 5797 5798 5799 5800 5801 5802 5803 5805 5806 5807 5807 5808 5809 5809 5809 5810 5811 5811 5812 5812 5813
5767 5768 5769 5770 5771 5772 5773 5775 5776 5777 5778 5779 5780 5782 5783 5784 5785 5786 5787 5788 5788 5789 5790 5791 5792 5793 5794 5795 5797 5798 5799 5800 5801 5802 5802 5803 5803 5804 5804 5805 5806 5806 5807
5758 5760 5761 5762 5763 5764 5765 5766 5768 5769 5770 5771 5772 5773 5775 5776 5777 5778 5779 5780 5781 5781 5782 5783 5784 5785 5786 5788 5789 5790 5792 5793 5794 5795 5795 5796 5797 5797 5798 5799 5799 5800 5800
5749 5750 5752 5753 5754 5755 5756 5758 5759 5760 5761 5763 5764 5765 5766 5767 5768 5769 5770 5771 5772 5773 5774 5775 5776 5777 5778 5779 5781 5782 5784 5785 5786 5787 5788 5789 5790 5790 5791 5792 5792 5793 5793
5739 5740 5741 5743 5744 5745 5747 5748 5750 5751 5752 5753 5754 5756 5757 5758 5759 5760 5761 5762 5764 5765 5766 5767 5768 5768 5770 5771 5772 5774 5775 5776 5778 5779 5780 5781 5782 5783 5783 5784 5785 5785 5786
5728 5729 5731 5732 5733 5735 5736 5738 5739 5741 5742 5743 5744 5746 5747 5748 5749 5750 5752 5753 5755 5756 5757 5758 5759 5760 5761 5762 5763 5764 5766 5767 5769 5770 5771 5772 5773 5774 5775 5776 5777 5777 5778
5718 5719 5720 5722 5723 5724 5726 5727 5729 5730 5731 5733 5734 5735 5737 5738 5739 5741 5742 5744 5745 5746 5747 5748 5750 5751 5752 5753 5754 5755 5756 5757 5759 5760 5762 5763 5764 5765 5766 5767 5768 5768 5769
5708 5709 5711 5712 5713 5714 5715 5716 5718 5719 5721 5722 5723 5724 5726 5728 5729 5730 5732 5733 5735 5736 5737 5738 5739 5741 5742 5743 5744 5745 5746 5747 5749 5750 5752 5753 5754 5755 5757 5757 5758 5759 5759
5699 5699 5701 5702 5703 5704 5705 5706 5707 5708 5709 5711 5712 5713 5715 5717 5718 5720 5721 5722 5724 5725 5726 5727 5729 5730 5731 5732 5733 5734 5735 5737 5738 5740 5741 5743 5744 5745 5746 5747 5748 5748 5749
5689 5689 5690 5691 5692 5693 5695 5695 5696 5697 5698 5699 5700 5701 5703 5704 5706 5708 5710 5711 5712 5714 5715 5716 5718 5719 5720 5721 5722 5723 5724 5725 5727 5728 5730 5731 5733 5734 5735 5736 5737 5738 5738
5678 5679 5680 5681 5682 5683 5684 5685 5685 5686 5686 5687 5688 5690 5691 5693 5694 5696 5698 5700 5701 5702 5703 5705 5706 5708 5709 5710 5711 5712 5713 5714 5715 5717 5718 5720 5721 5723 5724 5725 5726 5726 5727
5667 5668 5669 5670 5671 5672 5673 5673 5674 5674 5675 5675 5676 5677 5679 5681 5682 5684 5686 5688 5689 5691 5692 5693 5694 5696 5697 5698 5699 5701 5702 5702 5703 5705 5706 5708 5709 5710 5712 5713 5713 5714 5714
5655 5657 5658 5659 5660 5660 5661 5662 5662 5663 5663 5664 5664 5665 5667 5668 5670 5672 5674 5676 5677 5679 5680 5681 5682 5684 5685 5686 5687 5689 5690 5690 5691 5693 5694 5695 5696 5698 5699 5699 5700 5701 5702
5643 5645 5646 5647 5648 5649 5649 5650 5651 5651 5651 5652 5653 5653 5654 5656 5658 5659 5661 5663 5665 5667 5668 5669 5670 5671 5673 5674 5675 5676 5677 5678 5679 5680 5681 5682 5683 5684 5685 5686 5687 5688 5688
5631 5632 5634 5635 5636 5636 5637 5638 5638 5639 5640 5640 5641 5641 5642 5644 5645 5647 5649 5651 5653 5654 5656 5657 5658 5659 5660 5661 5663 5664 5665 5666 5666 5667 5668 5669 5670 5671 5672 5672 5673 5674 5674
5618 5620 5621 5622 5623 5624 5625 5625 5626 5627 5627 5628 5629 5630 5631 5632 5633 5635 5637 5638 5639 5641 5643 5645 5645 5646 5647 5648 5650 5651 5652 5653 5653 5654 5655 5655 5656 5656 5657 5658 5659 5659 5660
5606 5607 5608 5609 5610 5611 5612 5613 5614 5615 5615 5616 5617 5618 5619 5620 5621 5623 5624 5626 5627 5629 5630 5632 5633 5634 5634 5635 5636 5637 5638 5639 5640 5640 5641 5641 5641 5642 5643 5643 5644 5644 5645
5593 5594 5595 5597 5598 5599 5600 5601 5602 5602 5603 5604 5605 5606 5607 5608 5609 5611 5612 5614 5615 5616 5618 5619 5620 5621 5621 5622 5623 5623 5624 5625 5625 5626 5626 5627 5627 5627 5628 5628 5629 5629 5630
5580 5581 5582 5584 5585 5587 5587 5588 5589 5589 5590 5591 5592 5593 5594 5595 5597 5598 5600 5602 5603 5604 5605 5606 5607 5608 5608 5608 5609 5610 5610 5611 5611 5611 5612 5612 5612 5612 5612 5613 5613 5614 5614
5566 5568 5570 5571 5572 5574 5575 5575 5576 5577 5578 5579 5579 5580 5581 5583 5584 5586 5587 5589 5590 5591 5592 5593 5594 5594 5595 5595 5595 5596 5596 5596 5597 5597 5597 5597 5597 5597 5597 5598 5599 5599 5599
5553 5555 5556 5558 5559 5561 5562 5562 5563 5564 5565 5566 5567 5568 5569 5570 5572 5573 5575 5576 5577 5578 5579 5580 5580 5581 5582 5582 5582 5582 5582 5582 5582 5582 5582 5582 5582 5583 5582 5583 5583 5583 5583
5540 5541 5543 5545 5546 5548 5549 5550 5550 5551 5552 5553 5555 5556 5557 5558 5559 5561 5562 5563 5564 5565 5566 5566 5567 5568 5568 5568 5568 5568 5568 5568 5568 5569 5567 5567 5567 5567 5568 5568 5567 5567 5567
5527 5528 5530 5531 5533 5535 5536 5537 5537 5538 5540 5541 5542 5543 5544 5546 5547 5548 5549 5550 5551 5551 5553 5554 5554 5554 5555 5555 5555 5554 5553 5553 5553 5552 5552 5553 5553 5553 5553 5552 5552 5551 5550
5515 5516 5517 5518 5520 5521 5523 5524 5524 5526 5527 5528 5529 5530 5532 5533 5534 5535 5536 5537 5538 5539 5539 5540 5541 5541 5541 5540 5540 5540 5539 5538 5538 5537 5536 5538 5538 5538 5538 5537 5536 5535 5535
5502 5503 5504 5505 5507 5508 5510 5511 5511 5513 5514 5515 5516 5517 5519 5520 5521 5521 5522 5524 5525 5525 5525 5526 5526 5526 5526 5526 5525 5525 5524 5524 5524 5523 5522 5523 5523 5523 5523 5522 5521 5520 5519
5490 5491 5492 5493 5495 5496 5497 5498 5499 5500 5501 5503 5504 5505 5506 5507 5507 5507 5508 5510 5511 5511 5511 5512 5512 5512 5512 5511 5511 5510 5509 5509 5508 5508 5508 5507 5507 5507 5508 5508 5506 5504 5503